Tracking 25709 objects as of 23-May-2022
HD Live streaming from Space Station
objects crossing your sky now

GRIFEX

Track GRIFEX now!
10-day predictions
GRIFEX is classified as:


NORAD ID: 40379
Int'l Code: 2015-003D
Perigee: 424.2 km
Apogee: 586.3 km
Inclination: 99.1 °
Period: 94.6 minutes
Semi major axis: 6876 km
RCS: Unknown
Launch date: January 31, 2015
Source: United States (US)
Launch site: AIR FORCE WESTERN TEST RANGE (AFWTR)

Uplink (MHz):
Downlink (MHz): 437.480
Beacon (MHz):
Mode: 9k6/19k2bps GMSK
Call sign: KD8SPS
Status: Inactive

aabbcc
Your satellite tracking list
Your tracking list is empty




NASA's NSSDC Master Catalog

Two Line Element Set (TLE):
1 40379U 15003D   22142.36739822  .00019365  00000-0  69019-3 0  9995
2 40379  99.1149 347.8835 0117841 154.2883 206.4272 15.22556059403650
Source of the keplerian elements: Caltech